Location: ???????
(55.4362°N, 38.1183°E)
Time: 08:59:36
(UTC+00:00)

Cosmos 1932 - Pass Details

Date: 26 October 2021
Orbit: 943 x 987 km, 65.0° (Epoch: 28 November)

Event Time Altitude Azimuth Distance (km) Brightness Sun altitude
Rises 14:49:11 0° 311° (NW) 3,618 8.1 -7.3°
Reaches altitude 10° 14:51:44 10° 313° (NW) 2,672 7.3 -7.6°
Maximum altitude 14:58:00 81° 41° (NE) 966 4.5 -8.5°
Drops below altitude 10° 15:04:16 10° 129° (SE) 2,679 6.4 -9.4°
Sets 15:06:50 0° 131° (SE) 3,628 7.1 -9.7°
